DW2640 Weather Reports


Display with metric or nautical units.
time (UTC)temp
F
wind
direction
speed
MPH
gust
MPH
rain 1hr
in
rain 24hr
in
rain mn
in
humidity
%
barometer
mb
20260904083007 77 233 1.0 5.0 0.00 0.00 0.00 76 1009.6
20260904081506 77 205 2.0 5.0 0.00 0.00 0.00 75 1009.8
20260904080004 78 211 1.0 4.0 0.00 0.00 0.00 74 1009.8
20260904074500 78 221 1.0 3.0 0.00 0.00 0.00 73 1009.6
20260904073107 79 221 1.0 6.0 0.00 0.00 0.00 72 1009.8
20260904071556 79 162 4.0 8.0 0.00 0.00 0.00 72 1009.6
20260904070054 79 171 2.0 8.0 0.00 0.00 0.00 71 1009.7
20260904064601 80 187 4.0 9.0 0.00 0.00 0.00 70 1009.6
20260904063104 80 208 3.0 10.0 0.00 0.00 0.00 70 1009.6
20260904061546 80 215 4.0 8.0 0.00 0.00 0.00 69 1009.3
20260904054549 81 193 6.0 11.0 0.00 0.00 0.00 68 1009.3
20260904053038 81 194 5.0 9.0 0.00 0.00 0.00 68 1009.2
20260904051536 82 196 3.0 9.0 0.00 0.00 0.00 68 1009.1
20260904050041 82 172 4.0 12.0 0.00 0.00 0.00 67 1009.0
20260904044532 82 175 6.0 12.0 0.00 0.00 0.00 66 1008.9
20260904043030 83 144 6.0 12.0 0.00 0.00 0.00 65 1008.9
20260904041532 83 209 7.0 12.0 0.00 0.00 0.00 65 1009.0
20260904040040 83 178 5.0 11.0 0.00 0.00 0.00 65 1009.0
20260904034530 84 162 6.0 9.0 0.00 0.00 0.00 64 1008.9
20260904033028 84 178 5.0 9.0 0.00 0.00 0.00 63 1009.1
20260904031526 85 163 6.0 10.0 0.00 0.00 0.00 62 1009.0
20260904030026 85 175 5.0 11.0 0.00 0.00 0.00 62 1009.0
20260904024525 86 207 5.0 12.0 0.00 0.00 0.00 61 1008.7
20260904023026 86 142 4.0 9.0 0.00 0.00 0.00 60 1008.6
20260904021538 87 175 7.0 11.0 0.00 0.00 0.00 58 1008.3
20260904020023 88 145 7.0 13.0 0.00 0.00 0.00 57 1008.2
20260904014523 88 166 8.0 14.0 0.00 0.00 0.00 55 1007.7
20260904013021 89 188 8.0 14.0 0.00 0.00 0.00 54 1007.3
20260904011521 90 192 6.0 12.0 0.00 0.00 0.00 52 1007.0
20260904010021 91 174 6.0 14.0 0.00 0.00 0.00 51 1006.8
20260904004523 92 200 6.0 12.0 0.00 0.00 0.00 49 1006.7
20260904003024 93 159 7.0 19.0 0.00 0.00 0.00 47 1006.6
20260904001518 94 183 8.0 13.0 0.00 0.00 0.00 45 1006.5
20260904000018 94 281 6.0 13.0 0.00 0.00 0.00 44 1006.4
20260903234517 95 167 11.0 18.0 0.00 0.00 0.00 43 1006.4
20260903233030 95 143 9.0 18.0 0.00 0.00 0.00 42 1006.4
20260903231517 96 182 9.0 22.0 0.00 0.00 0.00 41 1006.3
20260903230017 97 178 11.0 20.0 0.00 0.00 0.00 40 1006.3
20260903224522 97 179 7.0 19.0 0.00 0.00 0.00 40 1006.4
20260903223014 97 225 7.0 15.0 0.00 0.00 0.00 38 1006.4
20260903221511 97 202 9.0 16.0 0.00 0.00 0.00 38 1006.4
20260903220010 97 183 10.0 16.0 0.00 0.00 0.00 39 1006.5
20260903214511 97 178 11.0 18.0 0.00 0.00 0.00 37 1006.5
20260903213007 97 154 8.0 18.0 0.00 0.00 0.00 37 1006.5
20260903211505 97 159 10.0 18.0 0.00 0.00 0.00 37 1006.8
20260903210105 97 167 9.0 20.0 0.00 0.00 0.00 39 1006.9
20260903204502 97 157 7.0 16.0 0.00 0.00 0.00 39 1007.1
20260903203059 96 196 9.0 16.0 0.00 0.00 0.00 40 1007.1
20260903201558 96 167 11.0 18.0 0.00 0.00 0.00 40 1007.3
20260903200058 96 209 8.0 20.0 0.00 0.00 0.00 40 1007.4
20260903194554 96 190 11.0 15.0 0.00 0.00 0.00 41 1007.6
20260903193052 95 150 7.0 18.0 0.00 0.00 0.00 44 1008.0
20260903191550 95 196 10.0 18.0 0.00 0.00 0.00 46 1008.3
20260903190046 94 183 6.0 18.0 0.00 0.00 0.00 45 1008.3
20260903184642 93 253 9.0 16.0 0.00 0.00 0.00 46 1008.5
20260903183040 93 242 9.0 18.0 0.00 0.00 0.00 47 1008.6
20260903181536 93 190 8.0 18.0 0.00 0.00 0.00 49 1008.8
20260903180034 92 165 9.0 16.0 0.00 0.00 0.00 48 1009.1
20260903174531 91 180 7.0 18.0 0.00 0.00 0.00 51 1009.4
20260903173028 92 181 10.0 19.0 0.00 0.00 0.00 49 1009.4
20260903171532 91 196 8.0 20.0 0.00 0.00 0.00 51 1009.7
20260903170023 90 224 9.0 20.0 0.00 0.00 0.00 52 1010.0
20260903164520 89 146 7.0 20.0 0.00 0.00 0.00 56 1009.9
20260903163017 88 191 9.0 20.0 0.00 0.00 0.00 55 1010.1
20260903161516 87 217 8.0 15.0 0.00 0.00 0.00 59 1010.4
20260903160012 87 158 10.0 16.0 0.00 0.00 0.00 59 1010.3
20260903154508 85 184 8.0 19.0 0.00 0.00 0.00 61 1010.4
20260903153006 85 249 9.0 19.0 0.00 0.00 0.00 62 1010.4
20260903151509 85 167 11.0 21.0 0.00 0.00 0.00 63 1010.4
20260903150005 84 136 8.0 16.0 0.00 0.00 0.00 65 1010.4
20260903144559 83 206 6.0 16.0 0.00 0.00 0.00 66 1010.3
20260903143056 82 223 10.0 18.0 0.00 0.00 0.00 68 1010.4
20260903141551 81 172 8.0 15.0 0.00 0.00 0.00 70 1010.5
20260903140048 80 180 7.0 15.0 0.00 0.00 0.00 70 1010.6
20260903134551 79 240 7.0 14.0 0.00 0.00 0.00 72 1010.7
20260903133049 79 169 6.0 10.0 0.00 0.00 0.00 73 1010.7
20260903131539 78 201 6.0 10.0 0.00 0.00 0.00 74 1010.8
20260903130035 77 163 6.0 11.0 0.00 0.00 0.00 75 1010.7
20260903123037 76 199 4.0 10.0 0.00 0.00 0.00 76 1010.4
20260903121548 76 184 3.0 8.0 0.00 0.00 0.00 75 1010.2
20260903120044 76 200 4.0 10.0 0.00 0.00 0.00 74 1010.3
20260903114532 76 184 4.0 8.0 0.00 0.00 0.00 74 1010.1
20260903113028 76 175 4.0 8.0 0.00 0.00 0.00 73 1010.1
20260903111526 77 215 2.0 7.0 0.00 0.00 0.00 72 1010.0
20260903110024 77 171 3.0 7.0 0.00 0.00 0.00 71 1010.0
20260903104524 77 232 2.0 6.0 0.00 0.00 0.00 71 1009.9
20260903103021 78 177 2.0 6.0 0.00 0.00 0.00 70 1009.7
20260903101518 78 181 4.0 7.0 0.00 0.00 0.00 69 1009.8
20260903100017 79 229 4.0 8.0 0.00 0.00 0.00 68 1009.7
20260903094515 79 232 3.0 8.0 0.00 0.00 0.00 68 1009.6
20260903093013 79 123 4.0 9.0 0.00 0.00 0.00 67 1009.7
20260903091513 80 171 4.0 8.0 0.00 0.00 0.00 66 1009.6
20260903090010 80 188 4.0 10.0 0.00 0.00 0.00 65 1009.4
20260903084509 80 192 5.0 10.0 0.00 0.00 0.00 64 1009.4